Starlink 30152

operational
NORAD ID: 56828 Int'l Des: 2023-079 Owner: SPXS Country: US Constellation: starlink
LEOCIRCULAR

About Starlink 30152

Description loading...

Live Position

Loading 3D Globe...

Upcoming Passes

Altitude History

Altitude vs Time

uPlot chart will show altitude changes over time

Two-Line Element Set

1 56828U 23079F 26094.99929071 .00013882 00000-0 52582-3 0 9994
2 56828 43.0016 318.3252 0001278 293.2099 66.8618 15.26765671156914
Epoch: Apr 4, 2026 • Age: 12 hours

Current Status

Altitude 489.8 km
Velocity 7.62 km/s
Sub-Earth Point -19.95°S, 146.18°E
Launch Date Jun 4, 2023
Age 2.8 years
Type internet

Technical Details

Classification Payload
Mass 730.00 kg
Dry Mass 700.00 kg
Total Mass 730.00 kg
Length 0.30 m
Diameter 4.10 m
Span 29.00 m
Shape Box + pan
Manufacturer SPXS
Bus Type Starlink V2M
Phase Status In Orbit
Owner/State SPXS/US

Large Constellations

Loading constellations...